Walterboro, SC

1:31 PM EDT on May 26, 2017 (GMT -0400)
Lowcountry Regional

Weather History for KRBW - December, 2013

Change the Weather History Date:

Tuesday, December 10, 2013

  Actual Average Record
Temperature  
Mean Temperature 58 °F -  
Max Temperature 73 °F 63 °F 73 °F (2012)
Min Temperature 42 °F 40 °F 24 °F (2010)
Degree Days  
Heating Degree Days 8    
Growing Degree Days 8 (Base 50)    
Moisture  
Dew Point 50 °F    
Average Humidity 77    
Maximum Humidity 100    
Minimum Humidity 54    
Precipitation  
Precipitation 0.00 in - - ()
Sea Level Pressure  
Sea Level Pressure 30.10 in    
Wind  
Wind Speed 6 mph (West)    
Max Wind Speed 20 mph    
Max Gust Speed 30 mph    
Visibility 9 miles    
Events Rain    
Averages and records for this station are not official NWS values.
T = Trace of Precipitation, MM = Missing Value Source: NWS Daily Summary

Daily Weather History Graph

Daily Weather History Graph

Search for Another Location

Airport or City:

Trip Planner

Search our weather history database for the weather conditions in past years. The results will help you decide how hot, cold, wet, or windy it might be!

Date:

Astronomy

Dec. 10, 2013 Rise Set
Actual Time 7:14 AM EST 5:16 PM EST
Civil Twilight 6:47 AM EST 5:43 PM EST
Nautical Twilight 6:16 AM EST 6:14 PM EST
Astronomical Twilight 5:46 AM EST 6:44 PM EST
Moon 1:00 PM EST (12/10) 12:49 AM EST (12/10)
Length of Visible Light 10h 56m
Length of Day
10h 01m
First Quarter, 61% of the Moon is Illuminated
Dec 10
First Quarter
Dec 17
Full
Dec 25
Last Quarter
Jan 1
New
Jan 7
First Quarter

Hourly Weather History & Observations

Time (EST) Temp. Windchill Dew Point Humidity Pressure Visibility Wind Dir Wind Speed Gust Speed Precip Events Conditions
12:15 AM 62.6 °F - - N/A% 30.05 in 1.5 mi South 5.8 mph - N/A   Overcast
12:35 AM 62.6 °F - - N/A% 30.05 in 4.0 mi Calm Calm - N/A   Haze
12:55 AM 62.6 °F - - N/A% 30.05 in 3.0 mi South 3.5 mph - N/A   Overcast
1:15 AM 62.6 °F - - N/A% 30.04 in 4.0 mi Calm Calm - N/A   Haze
1:35 AM 62.6 °F - - N/A% 30.04 in 5.0 mi Calm Calm - N/A   Haze
1:55 AM 62.6 °F - - N/A% 30.03 in 3.0 mi Calm Calm - N/A   Mostly Cloudy
2:15 AM 62.6 °F - - N/A% 30.03 in 4.0 mi Calm Calm - N/A   Haze
2:35 AM 62.6 °F - - N/A% 30.03 in 4.0 mi Calm Calm - N/A   Haze
2:55 AM 62.6 °F - - N/A% 30.02 in 4.0 mi Calm Calm - N/A   Haze
3:15 AM 62.6 °F - - N/A% 30.02 in 5.0 mi Calm Calm - N/A   Haze
3:35 AM 62.6 °F - - N/A% 30.02 in 7.0 mi Calm Calm - N/A   Scattered Clouds
3:55 AM 62.6 °F - - N/A% 30.02 in 5.0 mi Calm Calm - N/A   Haze
4:15 AM 64.4 °F - - N/A% 30.02 in 7.0 mi SW 6.9 mph - N/A   Overcast
4:35 AM 64.4 °F - - N/A% 30.02 in 4.0 mi SW 9.2 mph - N/A   Haze
5:35 AM 64.4 °F - - N/A% 30.02 in 7.0 mi SW 11.5 mph - N/A   Overcast
5:55 AM 64.4 °F - - N/A% 30.02 in 10.0 mi SW 10.4 mph 18.4 mph N/A   Overcast
6:15 AM 64.4 °F - - N/A% 30.02 in 10.0 mi SSW 9.2 mph - N/A   Overcast
6:35 AM 64.4 °F - - N/A% 30.02 in 10.0 mi SSW 10.4 mph - N/A   Overcast
6:55 AM 64.4 °F - - N/A% 30.02 in 10.0 mi SW 10.4 mph - N/A   Overcast
7:15 AM 64.4 °F - - N/A% 30.01 in 10.0 mi SSW 9.2 mph 16.1 mph N/A   Overcast
7:35 AM 66.2 °F - - N/A% 30.00 in 10.0 mi South 11.5 mph 17.3 mph N/A   Overcast
7:55 AM 66.2 °F - - N/A% 30.00 in 10.0 mi SSW 12.7 mph - N/A   Overcast
8:15 AM 66.2 °F - - N/A% 30.00 in 10.0 mi SSW 12.7 mph 19.6 mph N/A   Overcast
8:35 AM 68.0 °F - - N/A% 30.01 in 10.0 mi SSW 12.7 mph 17.3 mph N/A   Overcast
8:55 AM 68.0 °F - - N/A% 30.02 in 10.0 mi SW 12.7 mph 17.3 mph N/A   Overcast
9:15 AM 68.0 °F - - N/A% 30.02 in 10.0 mi SW 9.2 mph 18.4 mph N/A   Overcast
9:35 AM 69.8 °F - - N/A% 30.03 in 10.0 mi SW 8.1 mph 16.1 mph N/A   Overcast
9:55 AM 68.0 °F - - N/A% 30.03 in 10.0 mi WSW 10.4 mph 17.3 mph N/A Rain Light Rain
10:15 AM 69.8 °F - - N/A% 30.02 in 10.0 mi SW 9.2 mph - N/A   Overcast
10:35 AM 69.8 °F - - N/A% 30.02 in 10.0 mi SW 8.1 mph - N/A   Overcast
10:55 AM 69.8 °F - - N/A% 30.01 in 10.0 mi SW 11.5 mph 18.4 mph N/A   Overcast
11:15 AM 71.6 °F - 71.6 °F 100% 30.01 in 10.0 mi SW 10.4 mph 17.3 mph N/A   Overcast
11:35 AM 73.4 °F - 73.4 °F 100% 30.00 in 10.0 mi SW 12.7 mph 18.4 mph N/A   Mostly Cloudy
11:55 AM 68.0 °F - 68.0 °F 100% 30.03 in 5.0 mi West 12.7 mph 29.9 mph N/A Rain Light Rain
12:15 PM 68.0 °F - 68.0 °F 100% 30.03 in 10.0 mi West 19.6 mph 29.9 mph N/A   Overcast
12:35 PM 66.2 °F - 66.2 °F 100% 30.03 in 10.0 mi West 16.1 mph 21.9 mph N/A   Overcast
12:55 PM 64.4 °F - 64.4 °F 100% 30.03 in 10.0 mi West 18.4 mph 25.3 mph N/A   Overcast
1:15 PM 66.2 °F - 62.6 °F 88% 30.02 in 10.0 mi WNW 8.1 mph 18.4 mph N/A   Overcast
1:35 PM 66.2 °F - 59.0 °F 78% 30.03 in 10.0 mi West 17.3 mph 28.8 mph N/A   Overcast
1:55 PM 64.4 °F - 57.2 °F 77% 30.04 in 10.0 mi WNW 10.4 mph 21.9 mph N/A   Mostly Cloudy
2:15 PM 62.6 °F - 57.2 °F 82% 30.06 in 10.0 mi WNW 11.5 mph 21.9 mph N/A   Overcast
2:35 PM 62.6 °F - 55.4 °F 77% 30.06 in 10.0 mi WNW 13.8 mph 23.0 mph N/A   Scattered Clouds
2:55 PM 64.4 °F - 53.6 °F 68% 30.06 in 10.0 mi West 13.8 mph 20.7 mph N/A   Scattered Clouds
3:15 PM 64.4 °F - 53.6 °F 68% 30.07 in 10.0 mi WNW 13.8 mph 19.6 mph N/A   Scattered Clouds
3:35 PM 62.6 °F - 51.8 °F 68% 30.08 in 10.0 mi WNW 10.4 mph - N/A   Clear
3:55 PM 62.6 °F - 51.8 °F 68% 30.09 in 10.0 mi West 10.4 mph - N/A   Clear
4:15 PM 62.6 °F - 51.8 °F 68% 30.10 in 10.0 mi NW 9.2 mph - N/A   Clear
4:35 PM 60.8 °F - 50.0 °F 68% 30.12 in 10.0 mi WNW 11.5 mph 18.4 mph N/A   Clear
4:55 PM 59.0 °F - 48.2 °F 67% 30.14 in 10.0 mi WNW 11.5 mph 20.7 mph N/A   Clear
5:15 PM 59.0 °F - 48.2 °F 67% 30.14 in 10.0 mi NW 10.4 mph - N/A   Clear
5:35 PM 57.2 °F - 48.2 °F 72% 30.16 in 10.0 mi NW 6.9 mph - N/A   Clear
5:55 PM 55.4 °F - 48.2 °F 77% 30.18 in 10.0 mi WNW 5.8 mph - N/A   Clear
6:15 PM 55.4 °F - 48.2 °F 77% 30.19 in 10.0 mi NW 5.8 mph - N/A   Scattered Clouds
6:35 PM 53.6 °F - 48.2 °F 82% 30.21 in 10.0 mi NW 4.6 mph - N/A   Scattered Clouds
6:55 PM 53.6 °F - 48.2 °F 82% 30.21 in 10.0 mi NW 5.8 mph - N/A   Scattered Clouds
7:15 PM 53.6 °F - 48.2 °F 82% 30.22 in 10.0 mi NNW 4.6 mph - N/A   Mostly Cloudy
7:35 PM 53.6 °F - 48.2 °F 82% 30.24 in 10.0 mi North 4.6 mph - N/A   Mostly Cloudy
7:55 PM 53.6 °F - 41.0 °F 62% 30.24 in 10.0 mi North 6.9 mph - N/A   Scattered Clouds
8:15 PM 51.8 °F - 39.2 °F 62% 30.26 in 10.0 mi North 5.8 mph - N/A   Scattered Clouds
8:35 PM 51.8 °F - 37.4 °F 58% 30.26 in 10.0 mi North 3.5 mph - N/A   Clear
8:55 PM 51.8 °F - 35.6 °F 54% 30.27 in 10.0 mi NNW 4.6 mph - N/A   Clear
9:15 PM 50.0 °F - 37.4 °F 62% 30.28 in 10.0 mi Calm Calm - N/A   Clear
9:35 PM 48.2 °F - 37.4 °F 66% 30.28 in 10.0 mi Calm Calm - N/A   Clear
9:55 PM 44.6 °F - 37.4 °F 76% 30.29 in 10.0 mi Calm Calm - N/A   Clear
10:15 PM 42.8 °F 41.1 °F 37.4 °F 81% 30.31 in 10.0 mi NNW 3.5 mph - N/A   Clear
10:35 PM 44.6 °F 42.2 °F 39.2 °F 81% 30.31 in 10.0 mi NNW 4.6 mph - N/A   Scattered Clouds
10:55 PM 44.6 °F 41.4 °F 37.4 °F 76% 30.32 in 10.0 mi NNW 5.8 mph - N/A   Scattered Clouds
11:15 PM 44.6 °F 42.2 °F 37.4 °F 76% 30.32 in 10.0 mi North 4.6 mph - N/A   Clear
11:35 PM 42.8 °F 40.1 °F 37.4 °F 81% 30.33 in 10.0 mi NNW 4.6 mph - N/A   Clear
11:55 PM 42.8 °F 41.1 °F 37.4 °F 81% 30.34 in 10.0 mi North 3.5 mph - N/A   Clear